Погода в Силькеборге

Дания     56°11′00″N   9°32′19″E
темп.,
°C
ветер,
м/с
пор.,
м/с
влажн.,
%
обл.,
%
осадки,
мм/ч
давл.,
гПа
погр.,
м
22 апреля, чт
чт2223:00+4сз815734 0.0 1012701
02:00+3зсз612710 0.0 1013376
05:00+3сз612741 0.0 1014389
08:00+4сз710631 0.0 1015785
11:00+8сз78495 0.0 10161253
14:00+10сз68365 0.0 10171972
17:00+10сз89373 0.0 10181849
20:00+6зсз713675 0.0 1019691
23 апреля, пт
пт2323:00+5сз714630 0.0 1019559
02:00+3сз613710 0.0 1020464
05:00+3сз612795 0.0 1021406
08:00+5сз69745 0.0 1022692
11:00+9ссз57485 0.0 10231453
14:00+11ссз57355 0.0 10232004
17:00+10сз56363 0.0 10241883
20:00+6зсз69645 0.0 1025509
24 апреля, сб
сб2423:00+4з510815 0.0 1025489
02:00+3зсз611796 0.0 1024492
05:00+2зсз4108440 0.0 1024205
08:00+4ссв510805 0.0 1025462
11:00+8св66425 0.0 10271492
14:00+9ссв453332 0.0 10272142
17:00+10с55335 0.0 10272011
20:00+6ссв34500 0.0 102887
25 апреля, вс
вс2523:00+3с11480 0.0 102810
02:00+1зюз225716 0.0 102824
05:000зюз22745 0.0 102828
08:00+4з357543 0.0 1026272
11:00+8з455671 0.0 10251161
14:00+10зсз6651100 0.0 10231396
17:00+9зсз565240 0.0 10221279
20:00+6зсз47655 0.0 1021336
26 апреля, пн
пн2623:00+2ссз33825 0.0 102153
02:00+1с22864 0.0 102015
05:000св229021 0.0 102011
08:00+4св236938 0.0 1020169
11:00+9всв344836 0.0 1019999
14:00+11всв4438100 0.0 10181566
17:00+10всв4440100 0.0 10161268
20:00+6в3555100 0.0 1016131